Current weather by "City, St" or "zip code"  
 

Current Conditions: North Wilkesboro, Wilkes County Airport, NC

Partly Cloudy


63.0 F

Last Updated on Sep 18 2020, 3:55 am EDT
Humidity: 100%
Wind Speed: N 5.8 mph
Barometer 29.92 in
Dewpoint: 62.6 F
Visibility: 10.00 mi
Precip: --
Heat Index: NA
Wind Chill: 63 F
Current conditions at:

North Wilkesboro, Wilkes County Airport, NC (KUKF)

Lat: 36.21667 Lon: 81.08333

Local Radar Image active severe weather and emergency alerts image image weather storm and storm spotter reports image weather observation monitoring service image
Local
Radar
Active
Alerts
Storm Reports Obs
Monitoring

Sign-up For Email & Text Message Weather Alert Notification Services



Advertise Here

Observation History for North Wilkesboro, Wilkes County Airport, NC


Time Wind
(mph)
Vis
(mi)
Weather Precip (in) Temperature (F) Relative
Humidity
Wind
Chill
(F)
Heat
Index
(F)
Pressure
Air Dwpt altimeter
(in)
sea level
(mb)
Rmks
3:55 am EDT N 5.8 10.00 Partly Cloudy -- 63.0 62.6 100% 63 NA 29.92 M
2:55 am EDT N 4.6 10.00 Overcast -- 64.0 64.4 100% NA NA 29.92 M
1:55 am EDT N 5.8 10.00 Overcast -- 64.0 64.4 100% NA NA 29.92 M
12:55 am EDT N 5.8 10.00 Overcast -- 63.0 62.6 100% 63 NA 29.93 M
11:55 pm EDT N 0.0 3.00 Fog/Mist -- 63.0 62.6 100% NA NA 29.93 M
10:55 pm EDT N 0.0 10.00 Light Drizzle -- 63.0 62.6 100% NA NA 29.93 M
9:55 pm EDT N 0.0 10.00 Drizzle -- 64.0 64.4 100% NA NA 29.93 M
8:55 pm EDT NE 9.2 10.00 Overcast -- 64.0 64.4 100% NA NA 29.92 M
7:55 pm EDT NE 6.9 10.00 Light Drizzle -- 64.0 64.4 100% NA NA 29.92 M
6:55 pm EDT NE 5.8 10.00 Drizzle -- 64.0 64.4 100% NA NA 29.92 M
5:55 pm EDT NE 8.1 G 16.1 10.00 Rain -- 64.0 64.4 100% NA NA 29.91 M
4:55 pm EDT NE 6.9 5.00 Rain -- 64.0 64.4 100% NA NA 29.92 M
4:35 pm EDT NE 9.2 5.00 Rain -- 64.0 64.4 100% NA NA 29.91 M
3:55 pm EDT NE 10.4 G 16.1 4.00 Heavy Rain -- 64.0 64.4 100% NA NA 29.93 M
3:35 pm EDT NE 9.2 3.00 Heavy Rain -- 64.0 64.4 100% NA NA 29.94 M
2:55 pm EDT NE 9.2 10.00 Rain -- 64.0 64.4 100% NA NA 29.95 M
1:55 pm EDT NE 6.9 7.00 Light Rain -- 64.0 64.4 100% NA NA 29.99 M
12:35 pm EDT NE 8.1 10.00 Rain -- 64.0 64.4 100% NA NA 30.02 M
11:55 am EDT NE 6.9 10.00 Light Rain -- 64.0 64.4 100% NA NA 30.04 M
10:55 am EDT NE 3.5 10.00 Light Rain -- 63.0 62.6 100% NA NA 30.06 M
9:55 am EDT N 0.0 7.00 Light Rain -- 63.0 62.6 100% NA NA 30.07 M
8:55 am EDT N 0.0 2.50 Rain -- 61.0 60.8 100% NA NA 30.07 M
7:55 am EDT N 0.0 1.25 Light Rain -- 61.0 60.8 100% NA NA 30.06 M
6:55 am EDT N 0.0 4.00 Light Rain -- 61.0 60.8 100% NA NA 30.05 M

Regional Weather Observation


Jefferson - Ashe County Airport, NC (KGEV)

Overcast
59.0 F

Watauga County Hospital Heliport, NC (KTNB)

NULL
61.0 F

Marion / Wytheville, VA (KMKJ)

Overcast
64.0 F

Hillsville, VA (KHLX)

Rain
60.0 F

Mount Airy/Surry County Airport, NC (KMWK)

Overcast
67.0 F

Morganton-Lenoir Airport, NC (KMRN)

Partly Cloudy
65.0 F